Weather History for KPSP - July, 2012

Change the Weather History Date:

Sunday, July 15, 2012

  Actual Average Record
Temperature  
Mean Temperature 94 °F 93 °F  
Max Temperature 105 °F 108 °F 118 °F (2006)
Min Temperature 82 °F 78 °F 61 °F (1940)
Degree Days  
Heating Degree Days 0 0  
Month to date heating degree days 0 0  
Since 1 June heating degree days 0 0  
Since 1 July heating degree days 0 0  
Cooling Degree Days 29 28  
Month to date cooling degree days 411 400  
Year to date cooling degree days 2051 1806  
Since 1 June cooling degree days 1112 1047  
Growing Degree Days 44 (Base 50)    
Moisture  
Dew Point 49 °F    
Average Humidity 28    
Maximum Humidity 44    
Minimum Humidity 11    
Precipitation  
Precipitation 0.00 in 0.01 in 0.00 in (2015)
Month to date precipitation T 0.02  
Year to date precipitation 0.79 2.96  
Since 1 July precipitation T 0.02  
Snow  
Snow 0.00 in - - ()
Month to date snowfall 0.0  
Year to date snowfall 0.0  
Since 1 July snowfall 0.0  
Snow Depth 0.00 in    
Sea Level Pressure  
Sea Level Pressure 29.78 in    
Wind  
Wind Speed 6 mph (NNW)    
Max Wind Speed 21 mph    
Max Gust Speed 26 mph    
Visibility 10 miles    
Events      
T = Trace of Precipitation, MM = Missing Value Source: NWS Daily Summary

Daily Weather History Graph

Daily Weather History Graph

Search for Another Location

Airport or City:

Trip Planner

Search our weather history database for the weather conditions in past years. The results will help you decide how hot, cold, wet, or windy it might be!

Date:

Astronomy

Jul. 15, 2012 Rise Set
Actual Time 5:46 AM PDT 7:57 PM PDT
Civil Twilight 5:18 AM PDT 8:25 PM PDT
Nautical Twilight 4:43 AM PDT 9:00 PM PDT
Astronomical Twilight 4:06 AM PDT 9:37 PM PDT
Moon 2:46 AM PDT (7/15) 5:17 PM PDT (7/15)
Length of Visible Light 15h 07m
Length of Day
14h 10m
Waning Crescent, 11% of the Moon is Illuminated
Jul 15
Waning Crescent
Jul 18
New
Jul 26
First Quarter
Aug 1
Full
Aug 9
Last Quarter

Hourly Weather History & Observations

Time (PDT) Temp. Heat Index Dew Point Humidity Pressure Visibility Wind Dir Wind Speed Gust Speed Precip Events Conditions
12:53 AM 88.0 °F - 51.1 °F 28% 29.81 in 10.0 mi Variable 3.5 mph - N/A   Clear
1:53 AM 87.1 °F - 50.0 °F 28% 29.82 in 10.0 mi NE 4.6 mph - N/A   Mostly Cloudy
2:53 AM 86.0 °F - 52.0 °F 31% 29.82 in 10.0 mi Calm Calm - N/A   Clear
3:53 AM 84.0 °F - 52.0 °F 33% 29.83 in 10.0 mi NNW 6.9 mph - N/A   Clear
4:53 AM 82.9 °F 81.8 °F 53.1 °F 36% 29.83 in 10.0 mi North 6.9 mph - N/A   Overcast
5:53 AM 82.0 °F - 52.0 °F 35% 29.83 in 10.0 mi NNW 8.1 mph - N/A   Clear
6:53 AM 84.0 °F 82.5 °F 53.1 °F 34% 29.84 in 10.0 mi NW 5.8 mph - N/A   Clear
7:53 AM 86.0 °F 84.7 °F 55.9 °F 36% 29.85 in 10.0 mi NW 5.8 mph - N/A   Clear
8:53 AM 91.0 °F 90.9 °F 61.0 °F 36% 29.85 in 10.0 mi ENE 4.6 mph - N/A   Partly Cloudy
9:53 AM 91.0 °F 93.8 °F 66.0 °F 44% 29.85 in 10.0 mi Variable 6.9 mph - N/A   Clear
10:53 AM 93.9 °F 96.1 °F 64.9 °F 38% 29.83 in 10.0 mi Variable 5.8 mph - N/A   Clear
11:53 AM 95.0 °F 97.9 °F 66.0 °F 38% 29.82 in 10.0 mi East 6.9 mph - N/A   Scattered Clouds
12:53 PM 96.1 °F 98.8 °F 64.9 °F 36% 29.80 in 10.0 mi Calm Calm - N/A   Scattered Clouds
1:53 PM 99.0 °F 102.3 °F 64.9 °F 33% 29.77 in 10.0 mi ESE 6.9 mph - N/A   Scattered Clouds
2:53 PM 99.0 °F 102.3 °F 64.9 °F 33% 29.74 in 10.0 mi NE 6.9 mph - N/A   Scattered Clouds
3:53 PM 100.9 °F 102.1 °F 61.0 °F 27% 29.71 in 10.0 mi Variable 6.9 mph - N/A   Clear
4:53 PM 105.1 °F - 39.0 °F 10% 29.70 in 10.0 mi NW 18.4 mph 25.3 mph N/A   Clear
5:53 PM 102.2 °F - 26.6 °F 7% 29.70 in 10.0 mi NW 13.8 mph 26.5 mph N/A   Clear
6:53 PM 99.0 °F - 25.0 °F 7% 29.70 in 10.0 mi NW 18.4 mph - N/A   Clear
7:53 PM 95.0 °F - 28.0 °F 9% 29.71 in 10.0 mi NW 20.7 mph 28.8 mph N/A   Clear
8:53 PM 91.9 °F - 33.1 °F 12% 29.72 in 10.0 mi NW 17.3 mph - N/A   Clear
9:53 PM 89.1 °F - 32.0 °F 13% 29.74 in 10.0 mi NW 15.0 mph - N/A   Clear
10:53 PM 87.1 °F - 30.9 °F 13% 29.75 in 10.0 mi NW 9.2 mph - N/A   Clear
11:53 PM 82.9 °F - 37.0 °F 19% 29.75 in 10.0 mi Calm Calm - N/A   Clear